Wind_Speed
28 27 25 23 22 20 19 18 16 15 14 12 9 6 4 4 3 5 6 7 7 8 9 9 8 7 8 7 7 6 6 6 6 6 6 6 6 5 4 3 3 3 3 3
29 28 26 26 25 23 21 20 19 18 17 14 12 9 7 5 5 5 5 6 6 6 7 8 8 7 7 7 7 7 6 5 5 5 6 6 6 6 5 4 3 3 3 4
29 28 28 27 26 25 23 22 21 20 19 17 16 13 10 8 7 6 5 5 5 6 7 6 6 6 6 7 6 6 6 5 5 5 5 6 5 5 5 4 4 3 4 4
31 30 29 28 28 26 25 24 23 22 21 20 18 15 12 10 9 7 5 5 5 6 7 6 6 6 6 6 6 6 6 6 6 5 5 6 6 5 5 5 5 4 4 5
31 31 30 29 28 27 26 26 26 25 25 23 22 19 14 12 9 7 7 5 6 7 7 7 6 7 6 6 6 7 7 7 7 6 5 6 6 6 6 5 5 5 5 6
32 32 31 30 29 28 28 27 27 27 27 26 24 22 18 14 11 9 8 7 7 8 9 8 7 8 8 8 8 8 8 8 8 8 7 7 7 7 7 6 6 7 7 6
32 32 31 31 30 30 29 28 29 29 29 28 25 24 20 16 13 12 11 9 9 9 10 10 9 8 9 9 9 9 9 9 9 8 8 8 8 8 8 8 8 8 8 8
32 32 32 31 31 31 30 29 30 30 29 28 27 25 21 18 16 15 14 12 11 11 11 12 10 9 10 10 10 10 11 11 10 9 9 8 8 9 8 9 9 9 10 9
31 31 31 31 31 31 31 30 30 30 29 29 28 25 22 20 18 16 15 14 13 12 12 12 11 10 10 11 12 12 12 12 11 10 9 9 9 9 9 9 10 10 10 10
31 31 31 31 31 32 31 31 31 31 30 30 29 26 23 21 20 18 17 16 15 14 14 13 12 12 12 12 13 13 14 13 12 11 11 10 9 10 10 10 10 11 11 11
31 31 30 31 32 32 31 32 32 31 31 31 29 27 24 22 21 20 19 18 17 16 15 14 14 13 13 13 13 13 14 13 12 11 11 11 11 11 11 11 11 11 11 11
30 30 30 31 31 32 32 31 31 32 31 30 29 27 25 24 23 22 20 19 18 16 16 15 15 14 15 15 14 14 15 15 14 14 13 13 12 12 12 12 12 12 12 12
30 30 30 31 31 32 32 32 31 31 31 31 29 27 25 25 24 22 21 19 18 17 17 17 15 15 16 16 16 16 15 16 16 14 14 13 13 13 13 13 13 13 13 14
30 30 30 30 29 30 31 31 31 31 31 30 29 27 26 25 24 23 22 21 20 19 17 16 16 16 17 17 17 16 17 17 17 16 15 14 15 15 15 14 14 14 14 15
31 30 30 29 29 29 29 29 30 31 30 30 28 27 26 25 25 24 23 22 21 19 18 17 17 18 18 17 18 18 17 17 17 16 16 16 15 15 15 15 15 16 15 16
32 31 30 30 29 29 29 29 29 29 30 29 28 27 26 25 24 24 23 22 21 20 19 19 18 18 18 18 19 20 20 18 17 17 17 17 17 16 17 17 17 17 17 17
33 32 31 31 30 29 30 29 29 29 28 27 27 26 25 24 24 23 23 22 22 22 21 21 21 20 20 21 22 21 21 19 19 19 18 18 18 18 18 19 18 18 18 18
33 31 31 31 30 31 29 28 28 28 27 26 26 25 25 24 23 23 23 23 23 22 22 22 22 22 22 23 23 22 22 22 21 20 20 19 20 21 21 20 20 20 19 20
33 32 31 31 31 31 29 28 28 27 27 26 25 24 25 24 25 25 24 24 24 24 24 23 23 22 23 23 23 23 23 23 22 22 22 21 22 23 22 22 22 22 21 21
33 32 32 32 32 32 29 28 28 27 27 26 25 24 23 24 25 25 25 25 25 25 26 25 24 23 24 24 24 24 24 23 23 23 22 23 23 24 24 23 24 23 23 22
32 33 33 33 32 31 29 28 27 27 26 25 24 24 23 24 24 24 25 26 27 27 27 27 26 25 25 24 24 24 24 24 24 25 25 25 26 26 25 23 24 24 24 24
32 32 32 32 32 31 29 28 28 27 26 25 25 24 24 23 24 24 26 26 26 27 27 26 26 26 26 25 24 24 24 25 25 26 27 27 28 28 26 25 25 26 26 26
31 32 31 32 32 31 30 29 27 27 26 26 25 25 25 24 25 25 25 26 26 26 26 26 26 26 25 25 24 24 24 25 25 26 28 28 27 27 26 26 27 27 27 27
31 32 32 31 31 30 30 30 29 28 28 27 27 26 25 25 25 25 26 26 26 26 26 26 26 26 25 25 25 25 24 25 26 26 27 27 26 26 26 26 26 26 26 26
31 31 31 31 30 29 29 29 29 29 29 28 27 26 26 25 25 24 25 25 25 26 26 26 25 25 25 26 26 26 25 24 24 25 24 24 24 24 25 25 26 26 25 25
30 30 30 29 29 30 29 28 28 28 28 28 27 27 27 26 25 25 24 24 25 25 25 25 25 24 25 25 25 24 23 23 23 23 23 22 22 24 24 24 24 24 24 24
Wind_Direction
229 229 230 233 235 237 240 244 246 248 254 259 261 258 271 292 319 341 351 356 5 13 13 13 17 21 24 26 27 23 21 24 25 25 23 27 29 30 27 24 20 14 12 6
229 228 230 232 234 235 237 239 241 246 251 257 260 258 263 272 281 301 323 339 348 355 358 2 8 10 14 17 18 17 15 17 14 14 16 16 23 21 20 17 12 6 4 1
230 229 230 231 233 234 235 236 239 245 251 257 259 259 258 260 271 284 302 322 325 333 340 346 353 358 2 6 10 9 5 5 3 2 2 2 7 12 13 8 1 353 352 349
228 228 229 231 232 234 235 235 236 240 247 253 258 257 258 263 269 273 281 304 315 319 322 325 331 332 338 345 348 351 350 344 343 347 352 355 0 6 8 5 0 341 333 329
227 228 229 230 231 232 233 233 234 238 243 249 253 256 260 262 264 265 268 277 297 303 309 312 312 310 313 318 323 328 331 329 326 327 332 340 345 347 349 347 344 338 327 321
226 227 228 228 229 229 231 233 235 237 241 245 250 255 258 263 260 254 255 263 283 289 293 297 297 297 300 301 303 309 316 318 318 319 322 323 327 330 332 331 325 326 320 316
225 226 226 227 228 228 229 231 234 236 239 244 248 252 257 259 257 250 248 256 270 275 279 281 284 288 289 290 294 302 309 309 308 307 309 313 315 317 318 318 317 319 319 316
225 225 225 226 228 230 231 232 235 238 241 244 247 250 255 259 255 252 252 255 265 274 272 273 273 278 283 284 288 297 301 303 304 296 291 294 301 307 311 312 312 314 313 312
225 225 226 226 227 229 231 232 235 239 242 244 246 250 253 256 257 254 253 255 260 265 265 268 270 275 283 282 284 287 292 296 298 293 286 285 290 295 304 305 308 310 311 310
224 224 225 226 226 228 230 232 235 238 241 243 245 247 250 255 255 255 255 256 256 261 260 266 270 274 279 279 281 283 288 291 292 288 286 279 281 287 293 296 301 305 306 306
223 224 223 225 226 228 229 231 234 238 241 243 246 247 250 252 253 254 255 255 257 262 262 266 270 272 275 279 278 277 281 286 284 285 283 278 279 284 286 290 295 300 305 305
223 223 223 225 226 227 230 232 235 238 241 243 246 247 247 249 251 253 255 256 258 261 263 266 268 268 272 278 279 277 275 277 280 279 282 276 275 281 285 289 293 299 305 307
224 224 224 223 225 227 230 231 234 237 241 244 245 246 247 246 248 251 254 258 259 262 264 265 267 271 271 277 278 274 274 274 276 275 277 276 277 280 284 286 290 294 298 300
225 226 226 227 229 230 232 233 234 236 239 244 246 246 245 245 246 248 251 254 256 258 260 264 268 273 273 276 277 275 276 274 272 269 269 274 274 274 277 283 288 292 295 296
224 225 226 226 227 228 231 233 235 237 240 243 246 246 244 244 246 246 248 252 253 254 256 260 265 268 270 274 277 279 277 275 271 270 269 271 273 275 276 281 286 286 289 293
224 225 225 226 227 227 229 231 234 237 239 242 244 245 245 244 244 244 246 250 251 253 256 259 263 268 270 272 275 277 277 275 270 272 269 269 270 274 279 281 285 284 285 289
226 226 226 226 227 228 228 230 234 237 240 242 243 243 243 245 244 244 246 249 250 252 257 262 266 269 269 269 271 273 275 276 272 273 270 271 271 272 275 279 282 285 286 288
226 227 227 227 227 229 230 232 235 238 240 241 243 244 244 245 245 246 246 249 251 253 256 261 264 267 269 269 270 271 274 275 274 272 269 270 272 272 273 276 280 282 283 284
226 227 227 227 229 231 232 234 236 238 240 240 242 245 246 246 246 247 248 250 254 258 261 264 266 268 270 269 268 269 272 273 272 272 271 270 273 274 275 276 277 280 282 282
226 227 228 229 231 233 232 234 236 237 239 239 242 244 247 247 247 248 249 252 256 261 265 268 270 270 272 270 268 269 273 269 269 270 272 271 271 270 273 276 276 277 280 280
228 228 229 231 232 233 232 232 235 237 237 239 242 244 247 248 248 247 249 253 256 261 265 268 271 271 272 271 269 272 273 270 268 268 269 270 271 272 274 277 277 278 278 278
228 229 230 231 232 232 232 232 234 237 237 238 241 243 245 247 249 250 251 254 257 260 263 266 270 273 272 271 270 272 272 270 268 268 269 270 271 271 273 277 280 281 277 276
230 231 232 232 234 234 233 233 234 237 238 239 240 244 246 248 249 250 251 253 257 261 263 266 270 272 270 268 269 272 271 270 269 271 272 272 273 274 276 278 280 281 280 279
231 231 232 234 235 234 233 233 235 237 239 241 242 245 247 248 249 250 252 255 258 261 263 266 267 269 268 268 271 273 274 273 272 272 273 274 273 273 275 275 277 279 282 285
230 232 233 234 234 234 233 233 236 239 240 242 244 245 246 247 249 252 254 257 260 262 264 266 267 269 270 271 274 274 275 274 274 274 274 273 273 274 275 275 277 280 283 287
229 231 232 233 234 235 235 234 236 238 239 241 244 245 247 249 252 254 256 258 261 263 266 268 269 270 272 274 274 274 271 269 271 274 275 274 274 275 276 276 277 280 284 287
Height
5885 5890 5892 5895 5897 5900 5902 5903 5905 5907 5908 5909 5911 5912 5914 5915 5915 5916 5916 5915 5914 5913 5912 5912 5911 5910 5909 5908 5907 5906 5905 5904 5904 5903 5902 5901 5900 5899 5898 5897 5897 5896 5896 5896
5881 5885 5888 5890 5893 5896 5898 5901 5902 5904 5906 5907 5909 5911 5912 5913 5914 5915 5915 5915 5914 5913 5913 5912 5911 5911 5910 5909 5908 5907 5907 5906 5905 5904 5903 5902 5901 5900 5899 5898 5897 5897 5896 5896
5876 5881 5883 5886 5889 5892 5895 5898 5900 5901 5903 5905 5907 5909 5911 5912 5913 5913 5914 5914 5913 5913 5912 5912 5912 5911 5910 5909 5908 5908 5907 5906 5905 5904 5903 5902 5901 5900 5899 5898 5898 5897 5896 5896
5870 5874 5878 5881 5885 5888 5891 5894 5896 5898 5900 5901 5904 5906 5909 5910 5911 5912 5913 5913 5913 5912 5912 5911 5911 5910 5910 5909 5908 5908 5907 5907 5905 5904 5904 5903 5902 5901 5900 5899 5898 5897 5896 5896
5865 5868 5872 5876 5881 5884 5887 5890 5892 5894 5896 5898 5900 5903 5907 5907 5909 5910 5911 5911 5911 5911 5911 5910 5910 5910 5909 5908 5908 5907 5907 5906 5905 5904 5903 5903 5902 5901 5900 5899 5898 5897 5896 5895
5859 5863 5867 5872 5875 5879 5882 5885 5888 5890 5892 5895 5897 5900 5903 5905 5907 5908 5909 5909 5909 5909 5909 5909 5908 5908 5908 5907 5907 5906 5906 5905 5904 5903 5902 5902 5901 5900 5899 5898 5897 5896 5895 5894
5853 5857 5862 5866 5869 5873 5877 5880 5883 5885 5887 5890 5894 5895 5899 5902 5904 5905 5906 5907 5907 5907 5907 5907 5906 5906 5906 5906 5905 5905 5904 5903 5903 5902 5901 5901 5900 5899 5899 5898 5897 5896 5894 5893
5848 5853 5857 5861 5865 5868 5872 5876 5879 5881 5884 5887 5889 5891 5896 5898 5900 5901 5903 5903 5904 5905 5905 5905 5904 5904 5904 5904 5904 5903 5902 5901 5900 5900 5899 5899 5899 5898 5897 5896 5895 5894 5893 5892
5842 5847 5852 5856 5860 5864 5867 5870 5874 5877 5879 5882 5885 5888 5891 5893 5896 5898 5899 5900 5901 5902 5902 5902 5902 5902 5902 5902 5901 5901 5900 5899 5898 5897 5897 5897 5897 5896 5895 5895 5894 5893 5891 5890
5837 5842 5846 5850 5854 5857 5862 5865 5869 5871 5874 5877 5880 5883 5887 5889 5892 5894 5895 5897 5898 5899 5899 5900 5900 5900 5899 5899 5899 5897 5897 5896 5895 5895 5894 5894 5894 5894 5893 5893 5892 5891 5889 5888
5831 5836 5841 5844 5848 5852 5857 5860 5863 5867 5869 5872 5875 5881 5882 5885 5887 5889 5891 5893 5895 5896 5897 5897 5897 5897 5897 5896 5896 5896 5895 5894 5893 5893 5893 5892 5892 5891 5891 5890 5889 5888 5887 5886
5826 5830 5835 5839 5843 5847 5851 5855 5859 5862 5865 5868 5871 5877 5878 5880 5883 5885 5887 5889 5891 5892 5893 5894 5894 5894 5893 5893 5893 5892 5892 5891 5891 5891 5890 5890 5889 5888 5888 5887 5887 5886 5885 5883
5820 5825 5830 5834 5839 5842 5845 5849 5853 5857 5860 5862 5866 5872 5873 5876 5878 5880 5883 5885 5886 5888 5889 5890 5890 5890 5890 5890 5889 5889 5888 5888 5888 5887 5886 5887 5886 5886 5885 5885 5884 5883 5882 5881
5816 5820 5826 5830 5834 5837 5841 5844 5848 5851 5854 5857 5861 5865 5868 5871 5874 5876 5878 5880 5882 5884 5885 5886 5886 5886 5886 5886 5885 5884 5884 5884 5883 5883 5883 5883 5883 5882 5882 5882 5880 5880 5879 5878
5810 5815 5819 5824 5828 5832 5836 5839 5843 5846 5849 5853 5856 5859 5863 5866 5869 5871 5874 5875 5877 5879 5881 5882 5882 5882 5882 5882 5882 5881 5881 5880 5880 5879 5879 5879 5879 5879 5879 5878 5877 5876 5875 5874
5804 5809 5814 5818 5822 5826 5830 5834 5837 5840 5844 5847 5850 5854 5857 5860 5863 5866 5869 5871 5873 5874 5876 5877 5877 5877 5877 5878 5878 5878 5877 5877 5877 5876 5875 5875 5875 5875 5875 5874 5873 5872 5871 5870
5799 5804 5808 5813 5817 5820 5824 5828 5832 5835 5838 5842 5845 5849 5852 5855 5858 5861 5864 5866 5867 5869 5871 5872 5872 5872 5873 5873 5873 5873 5872 5872 5872 5871 5871 5871 5871 5871 5870 5870 5869 5868 5867 5866
5794 5798 5803 5807 5812 5815 5822 5823 5827 5830 5833 5837 5840 5843 5847 5850 5853 5855 5858 5860 5862 5863 5865 5866 5866 5867 5867 5867 5867 5867 5867 5867 5867 5866 5866 5866 5866 5865 5865 5864 5864 5863 5862 5861
5788 5793 5797 5801 5805 5809 5815 5818 5821 5825 5828 5832 5835 5838 5841 5844 5847 5850 5852 5854 5856 5857 5858 5859 5860 5860 5861 5861 5861 5861 5861 5861 5861 5861 5860 5860 5861 5860 5859 5859 5858 5858 5857 5856
5782 5787 5792 5796 5800 5804 5810 5813 5816 5821 5823 5827 5830 5833 5836 5839 5842 5845 5847 5849 5850 5851 5851 5852 5853 5853 5854 5854 5855 5855 5855 5855 5855 5855 5855 5855 5855 5854 5853 5853 5852 5852 5851 5850
5776 5781 5785 5790 5794 5798 5803 5807 5811 5816 5819 5822 5825 5828 5831 5833 5837 5839 5841 5842 5843 5844 5845 5845 5846 5846 5847 5847 5847 5848 5848 5848 5849 5849 5849 5849 5849 5848 5847 5847 5846 5845 5845 5844
5770 5775 5779 5784 5788 5794 5797 5801 5806 5809 5813 5816 5819 5822 5825 5828 5830 5832 5834 5836 5837 5838 5839 5839 5839 5840 5840 5840 5841 5842 5842 5842 5842 5842 5843 5843 5842 5841 5841 5840 5839 5839 5838 5837
5764 5770 5774 5779 5784 5788 5792 5796 5799 5803 5806 5810 5813 5816 5819 5821 5823 5826 5828 5829 5831 5832 5832 5833 5833 5833 5833 5834 5835 5835 5835 5835 5835 5836 5835 5835 5835 5834 5834 5834 5834 5832 5831 5830
5758 5763 5768 5772 5777 5781 5786 5790 5793 5797 5800 5804 5807 5810 5813 5815 5817 5819 5821 5822 5824 5825 5826 5826 5827 5827 5827 5827 5828 5828 5828 5828 5828 5828 5828 5827 5827 5827 5827 5827 5827 5826 5825 5824
5752 5757 5761 5766 5771 5775 5780 5784 5788 5791 5794 5798 5800 5803 5806 5808 5811 5813 5814 5816 5817 5818 5819 5819 5820 5820 5821 5821 5820 5820 5821 5821 5821 5821 5820 5820 5820 5820 5820 5820 5820 5819 5819 5818
5746 5751 5756 5760 5765 5769 5774 5778 5782 5785 5788 5791 5794 5797 5799 5802 5804 5806 5807 5809 5810 5811 5812 5813 5813 5814 5814 5814 5813 5813 5813 5814 5814 5814 5814 5814 5813 5813 5813 5813 5813 5813 5812 5812